GW5225 Weather Reports


time (UTC)temp
C
wind
direction
speed
KPH
gust
KPH
rain 1hr
cm
rain 24hr
cm
rain mn
cm
humidity
%
barometer
mb
20260506134310 8 258 4.8 9.7 0.00 2.54 1.35 95 972.9
20260506133310 8 300 3.2 4.8 0.00 2.54 1.35 95 972.6
20260506132810 8 1 3.2 4.8 0.00 2.54 1.35 95 972.6
20260506132309 7 21 0.0 4.8 0.00 2.54 1.35 95 972.3
20260506131809 7 342 1.6 6.4 0.00 2.54 1.35 95 972.3
20260506131309 7 49 6.4 6.4 0.00 2.54 1.35 96 971.9
20260506130809 7 5 0.0 6.4 0.00 2.54 1.35 96 972.3
20260506130308 7 16 1.6 6.4 0.00 2.54 1.35 97 972.3
20260506125809 7 7 1.6 4.8 0.00 2.54 1.35 97 972.3
20260506125307 7 22 0.0 8.0 0.00 2.54 1.35 97 972.3
20260506124807 7 79 0.0 8.0 0.00 2.54 1.35 97 972.3
20260506124307 7 341 0.0 6.4 0.00 2.54 1.35 97 972.3
20260506123807 7 65 0.0 4.8 0.00 2.54 1.35 97 972.3
20260506122807 7 175 0.0 3.2 0.00 2.54 1.35 97 972.3
20260506122307 7 107 1.6 3.2 0.00 2.54 1.35 97 971.9
20260506121802 7 272 1.6 4.8 0.00 2.54 1.35 97 971.9
20260506121302 7 330 3.2 4.8 0.00 2.54 1.35 97 971.6
20260506120301 7 46 0.0 3.2 0.00 2.57 1.35 97 971.6
20260506115802 7 290 1.6 3.2 0.00 2.57 1.35 97 971.2
20260506115301 7 285 0.0 3.2 0.00 2.57 1.35 97 971.9
20260506114803 7 72 3.2 3.2 0.00 2.57 1.35 97 971.6
20260506114302 7 315 1.6 4.8 0.00 2.57 1.35 97 971.2
20260506113802 7 45 0.0 4.8 0.00 2.57 1.35 97 971.6
20260506113302 7 338 3.2 6.4 0.00 2.57 1.35 97 971.2
20260506112802 7 357 3.2 6.4 0.00 2.57 1.35 97 971.2
20260506112305 7 102 1.6 4.8 0.00 2.57 1.35 97 970.9
20260506111302 7 353 3.2 6.4 0.03 2.57 1.35 97 971.6
20260506110802 7 325 3.2 6.4 0.03 2.57 1.35 97 971.9
20260506105802 7 343 3.2 4.8 0.03 2.57 1.35 97 971.2
20260506103801 7 352 3.2 4.8 0.10 2.57 1.35 97 970.2
20260506103301 7 321 3.2 6.4 0.10 2.57 1.35 97 969.9
20260506102800 7 27 4.8 6.4 0.13 2.57 1.35 97 969.9
20260506102301 7 29 4.8 6.4 0.13 2.57 1.35 97 969.9
20260506101803 7 339 3.2 4.8 0.18 2.57 1.35 97 969.9
20260506101259 7 54 3.2 4.8 0.15 2.54 1.32 97 969.9
20260506100800 7 349 3.2 8.0 0.18 2.54 1.32 97 970.2
20260506100259 7 41 1.6 8.0 0.20 2.54 1.32 97 969.9
20260506095759 7 30 3.2 6.4 0.20 2.54 1.32 97 970.6
20260506094758 7 354 3.2 9.7 0.15 2.49 1.27 97 970.6
20260506094258 7 23 1.6 6.4 0.18 2.49 1.27 97 970.9
20260506093757 7 1 1.6 6.4 0.15 2.46 1.24 97 970.6
20260506093257 7 32 3.2 8.0 0.13 2.44 1.22 97 970.6
20260506092257 7 337 3.2 8.0 0.13 2.41 1.19 96 970.6
20260506091756 7 359 4.8 8.0 0.10 2.39 1.17 96 970.6
20260506091257 7 10 3.2 6.4 0.13 2.39 1.17 96 970.6
20260506090756 7 224 0.0 6.4 0.13 2.36 1.14 96 970.6
20260506090256 7 17 3.2 6.4 0.15 2.34 1.12 96 970.6
20260506085756 7 343 3.2 11.3 0.18 2.34 1.12 96 970.6
20260506085255 7 312 3.2 12.9 0.23 2.34 1.12 96 970.6
20260506084755 7 34 9.7 12.9 0.25 2.34 1.09 96 970.6
20260506084255 7 339 3.2 11.3 0.28 2.31 1.09 96 970.6
20260506083755 7 335 3.2 11.3 0.30 2.31 1.09 96 970.2
20260506083254 7 2 4.8 11.3 0.36 2.31 1.07 97 969.9
20260506082254 7 352 8.0 14.5 0.38 2.29 1.07 97 970.2
20260506081754 7 9 1.6 6.4 0.41 2.29 1.07 97 970.2
20260506081253 7 354 4.8 6.4 0.41 2.26 1.04 97 970.2
20260506080753 7 6 3.2 6.4 0.38 2.24 1.02 97 970.2
20260506080253 8 0 4.8 9.7 0.36 2.18 0.97 97 970.6
20260506073251 8 359 6.4 8.0 0.23 1.96 0.74 97 969.9
20260506072751 8 352 6.4 8.0 0.23 1.93 0.71 97 969.5
20260506072251 8 349 3.2 6.4 0.23 1.91 0.69 97 969.5
20260506071750 8 354 4.8 6.4 0.23 1.88 0.66 97 969.5
20260506071250 8 334 3.2 6.4 0.25 1.85 0.64 97 969.5
20260506070249 8 34 3.2 6.4 0.28 1.83 0.61 96 969.5
20260506062247 9 350 3.2 8.0 0.25 1.68 0.46 97 969.9
20260506061747 9 30 3.2 8.0 0.20 1.63 0.41 97 970.2
20260506060746 9 336 1.6 6.4 0.15 1.55 0.33 97 970.2
20260506060246 9 353 3.2 4.8 0.13 1.52 0.30 97 970.2
20260506051243 9 337 3.2 8.0 0.13 1.40 0.18 96 970.6
20260506050743 9 31 8.0 8.0 0.15 1.40 0.18 96 970.6
20260506050243 9 0 3.2 8.0 0.18 1.40 0.18 96 970.9
20260506044742 9 349 3.2 6.4 0.20 1.37 0.13 96 970.9
20260506044242 9 358 4.8 8.0 0.20 1.35 0.10 96 971.2
20260506043742 9 348 3.2 8.0 0.18 1.32 0.10 96 971.2
20260506043242 9 17 4.8 9.7 0.20 1.32 0.08 96 970.9
20260506042741 9 1 6.4 9.7 0.18 1.30 0.08 96 970.9
20260506041741 10 38 4.8 6.4 0.18 1.27 0.05 96 971.2
20260506041240 10 340 4.8 8.0 0.18 1.27 0.05 96 970.9
20260506040740 10 4 4.8 8.0 0.18 1.24 0.03 96 970.9
20260506035740 10 46 3.2 8.0 0.13 1.19 1.19 96 970.9
20260506035240 10 39 1.6 8.0 0.15 1.19 1.19 96 970.9
20260506034740 10 21 3.2 6.4 0.13 1.17 1.17 96 971.2
20260506034239 10 25 4.8 6.4 0.10 1.14 1.14 96 970.9
20260506033739 10 358 3.2 6.4 0.13 1.14 1.12 96 970.9
20260506033238 10 344 0.0 9.7 0.10 1.12 1.12 96 970.9
20260506032738 10 25 1.6 9.7 0.13 1.12 1.12 96 970.9
20260506031738 10 359 4.8 8.0 0.15 1.09 1.09 95 971.2
20260506031237 11 1 0.0 9.7 0.20 1.09 1.09 95 971.2
20260506030237 11 28 4.8 14.5 0.23 1.07 1.07 95 971.2
20260506025236 13 348 8.0 16.1 0.23 1.04 1.04 96 971.6
20260506024735 14 301 4.8 9.7 0.23 1.04 1.04 96 971.2
20260506024236 14 264 4.8 9.7 0.23 1.04 1.02 96 971.2
20260506023735 14 348 1.6 9.7 0.23 1.02 1.02 96 971.2
20260506023236 14 289 3.2 11.3 0.23 1.02 0.99 96 971.2
20260506022735 14 336 3.2 11.3 0.20 0.99 0.99 96 971.2
20260506021734 14 333 0.0 3.2 0.13 0.91 0.91 96 971.2
20260506020232 14 135 0.0 3.2 0.05 0.84 0.84 95 970.6
20260506015733 14 155 3.2 3.2 0.05 0.84 0.84 96 970.9
20260506014732 14 106 0.0 1.6 0.03 0.81 0.81 95 970.9
20260506013732 14 75 0.0 1.6 0.00 0.79 0.79 95 970.9
20260506013231 13 230 0.0 1.6 0.00 0.79 0.79 95 970.6
20260506012731 13 322 0.0 1.6 0.00 0.79 0.79 95 970.9
20260506012231 13 44 0.0 0.0 0.00 0.79 0.79 95 970.6
20260506011731 13 22 0.0 1.6 0.03 0.79 0.79 95 970.6
20260506011230 13 22 0.0 1.6 0.03 0.79 0.79 95 970.6
20260506010730 13 44 0.0 1.6 0.03 0.79 0.79 94 970.6
20260506010230 13 64 0.0 1.6 0.03 0.79 0.79 94 970.6
20260506005730 13 224 0.0 0.0 0.05 0.79 0.79 94 970.6
20260506005230 13 50 0.0 0.0 0.05 0.79 0.79 94 970.6
20260506004730 13 290 0.0 0.0 0.08 0.79 0.79 94 970.6
20260506004233 13 290 0.0 0.0 0.10 0.79 0.79 94 970.6
20260506003733 13 290 0.0 3.2 0.15 0.79 0.79 94 970.6
20260506003229 13 290 0.0 3.2 0.20 0.79 0.79 94 970.6
20260506002728 13 44 0.0 0.0 0.30 0.79 0.79 94 970.6
20260506002229 13 315 0.0 0.0 0.56 0.79 0.76 94 970.6
20260506001728 13 129 0.0 0.0 0.61 0.76 0.76 94 970.6
20260506001227 13 129 0.0 0.0 0.66 0.76 0.76 94 970.9
20260506000227 13 129 0.0 1.6 0.66 0.76 0.76 94 970.9
20260505235727 13 117 0.0 1.6 0.64 0.74 0.74 94 970.9
20260505235227 13 117 0.0 3.2 0.64 0.74 0.74 93 970.9
20260505234226 14 224 3.2 8.0 0.58 0.69 0.66 93 970.6
20260505233726 14 251 0.0 8.0 0.53 0.64 0.61 93 970.9
20260505232725 15 289 6.4 9.7 0.36 0.46 0.43 91 971.2
20260505232225 15 285 4.8 8.0 0.10 0.20 0.18 88 970.9
20260505231725 15 348 3.2 4.8 0.05 0.15 0.15 85 970.9
20260505231224 16 315 0.0 3.2 0.00 0.10 0.10 83 970.2
20260505230724 16 208 1.6 4.8 0.00 0.10 0.10 83 970.2
20260505230224 16 205 0.0 4.8 0.00 0.10 0.10 83 970.2
20260505225224 16 81 0.0 3.2 0.00 0.10 0.10 82 969.9
20260505224723 16 44 0.0 3.2 0.00 0.10 0.10 82 969.9
20260505224226 16 26 1.6 4.8 0.00 0.10 0.10 81 970.2
20260505223723 16 222 1.6 4.8 0.00 0.10 0.10 81 970.2
20260505222723 16 319 3.2 4.8 0.00 0.10 0.10 81 970.2
20260505221722 17 8 1.6 8.0 0.00 0.10 0.10 80 970.2
20260505221221 17 33 3.2 6.4 0.00 0.10 0.10 79 970.2
20260505220721 17 32 6.4 6.4 0.00 0.10 0.10 78 970.2
20260505220221 17 333 3.2 6.4 0.00 0.10 0.10 76 970.6
20260505215720 17 354 1.6 8.0 0.00 0.10 0.10 75 970.6
20260505215220 17 301 1.6 8.0 0.00 0.10 0.10 73 970.2
20260505214720 18 9 1.6 8.0 0.00 0.10 0.10 72 970.2
20260505214219 18 0 0.0 8.0 0.00 0.10 0.10 70 970.6
20260505213719 18 294 6.4 8.0 0.00 0.10 0.10 71 970.2
20260505213219 18 318 6.4 9.7 0.00 0.10 0.10 72 970.2
20260505212219 18 269 0.0 12.9 0.00 0.10 0.10 71 970.2
20260505211718 18 241 1.6 16.1 0.00 0.10 0.10 72 970.6
20260505211218 17 261 3.2 16.1 0.00 0.10 0.10 72 970.2
20260505210718 17 229 4.8 12.9 0.00 0.10 0.10 74 970.2
20260505210218 17 319 8.0 14.5 0.03 0.10 0.10 75 970.2
20260505205217 17 350 0.0 12.9 0.08 0.10 0.10 77 970.6
20260505204717 17 340 3.2 12.9 0.08 0.10 0.10 76 970.6
20260505204220 17 254 1.6 11.3 0.08 0.10 0.10 77 970.6
20260505203716 17 211 6.4 12.9 0.08 0.10 0.10 78 970.6
20260505203216 17 319 3.2 14.5 0.08 0.10 0.10 78 970.6
20260505202716 16 216 8.0 17.7 0.08 0.10 0.10 79 970.6
20260505202216 16 215 3.2 17.7 0.08 0.10 0.10 79 970.6
20260505201715 16 228 6.4 12.9 0.08 0.10 0.10 80 970.6
20260505201215 17 258 3.2 12.9 0.08 0.10 0.10 79 970.9
20260505200715 17 236 3.2 16.1 0.08 0.10 0.10 75 970.9
20260505195214 19 330 0.0 12.9 0.00 0.03 0.03 65 970.6
20260505194714 19 310 6.4 14.5 0.00 0.03 0.03 61 970.6
20260505194213 20 294 3.2 14.5 0.00 0.03 0.03 59 970.6
20260505193713 20 294 3.2 9.7 0.00 0.03 0.03 59 970.6
20260505193213 20 304 6.4 14.5 0.00 0.03 0.03 58 970.6
20260505192712 20 228 1.6 14.5 0.00 0.03 0.03 58 970.6
20260505192212 19 252 4.8 8.0 0.00 0.03 0.03 59 970.6
20260505191712 19 249 3.2 12.9 0.00 0.03 0.03 59 970.6
20260505190211 19 301 8.0 16.1 0.00 0.03 0.03 60 970.9
20260505185711 18 331 3.2 16.1 0.00 0.03 0.03 60 970.6
20260505185211 18 192 6.4 14.5 0.00 0.03 0.03 61 970.9
20260505184714 19 321 11.3 14.5 0.00 0.03 0.03 60 970.9
20260505184213 19 277 4.8 11.3 0.00 0.03 0.03 60 970.9
20260505183710 18 337 4.8 8.0 0.00 0.03 0.03 62 971.2
20260505183210 18 289 6.4 11.3 0.00 0.03 0.03 62 971.6
20260505181209 18 313 6.4 17.7 0.00 0.03 0.03 61 971.6
20260505180708 18 296 4.8 19.3 0.00 0.03 0.03 61 971.2
20260505180208 19 283 3.2 19.3 0.00 0.03 0.03 60 971.2
20260505175708 19 269 6.4 16.1 0.00 0.03 0.03 60 971.2
20260505175208 19 311 3.2 16.1 0.00 0.03 0.03 60 971.2
20260505174707 19 315 4.8 17.7 0.00 0.03 0.03 59 971.2
20260505174207 19 207 3.2 17.7 0.00 0.03 0.03 58 971.2
20260505173702 20 215 8.0 17.7 0.00 0.03 0.03 58 970.9
20260505173202 20 262 3.2 14.5 0.00 0.03 0.03 58 971.2
20260505172702 20 304 6.4 16.1 0.00 0.03 0.03 57 970.9
20260505172202 20 301 9.7 24.1 0.00 0.03 0.03 56 971.2
20260505171201 20 220 16.1 25.7 0.00 0.03 0.03 56 970.9
20260505170703 20 244 6.4 25.7 0.00 0.03 0.03 55 971.2
20260505170203 20 317 6.4 17.7 0.00 0.03 0.03 56 971.2
20260505165702 20 230 8.0 17.7 0.00 0.03 0.03 56 971.2
20260505165201 19 300 4.8 16.1 0.00 0.03 0.03 57 970.9
20260505164702 20 257 8.0 19.3 0.00 0.03 0.03 56 970.9
20260505164205 20 327 9.7 24.1 0.00 0.03 0.03 57 970.9
20260505163703 20 221 9.7 24.1 0.00 0.03 0.03 55 970.9
20260505163203 20 308 3.2 20.9 0.00 0.03 0.03 55 970.9
20260505162702 20 136 8.0 14.5 0.00 0.03 0.03 55 971.2
20260505162202 20 283 8.0 17.7 0.00 0.03 0.03 56 970.9
20260505161702 20 253 4.8 17.7 0.00 0.03 0.03 56 970.6
20260505161202 20 213 6.4 19.3 0.00 0.03 0.03 57 970.6
20260505160702 20 207 1.6 19.3 0.00 0.03 0.03 58 970.6
20260505160202 20 201 4.8 19.3 0.00 0.03 0.03 58 970.6
20260505153200 19 228 6.4 16.1 0.00 0.03 0.03 61 970.6
20260505152659 19 340 6.4 20.9 0.00 0.03 0.03 61 970.6
20260505152200 19 306 6.4 19.3 0.00 0.03 0.03 61 970.6
20260505151700 19 84 3.2 24.1 0.00 0.03 0.03 61 970.6
20260505151159 18 220 6.4 24.1 0.00 0.03 0.03 61 970.9
20260505150158 18 266 3.2 20.9 0.00 0.03 0.03 64 970.6
20260505140155 17 213 14.5 24.1 0.00 0.03 0.03 65 970.6